Weather Roundup
Issued by NWS

Home | Current Version | Previous Version | Graphics & Text | Print | Product List | Glossary Off
Versions: 1 2 3 4 5 6 7 8 9 10 11 12 13 14 15 16 17 18 19 20 21 22 23 24 25 26 27 28 29 30 31 32 33 34 35 36 37 38 39 40 41 42 43 44 45 46 47 48 49 50

365
NZUS93 KARX 172059
HRRWXR

CURRENT HOURLY OBSERVATIONS ACROSS
MUCH OF THE UPPER MISSISSIPPI VALLEY
NATIONAL WEATHER SERVICE LA CROSSE WI
300 PM CST WED JAN 17 2018


...SOUTHEAST MINNESOTA...


CITY           SKY/WX    TMP DP  RH WIND       PRES   REMARKS
ROCHESTER      FAIR      21  12  68 SW22G31   30.16F WCI   5
ROCHESTER/MAYO FAIR      25  10  54 S10G21    30.17F WCI  14
WINONA         FAIR      30  12  47 W7        30.19F WCI  23
AUSTIN         NOT AVBL
ALBERT LEA     FAIR      25  10  54 SW12G21   30.19F WCI  14
DODGE CENTER   FAIR      21  10  63 S21       30.15F WCI   6
PRESTON        FAIR      22  10  60 SW22G28   30.19F WCI   6
OWATONNA       FAIR      23  16  74 S17G26    30.15F WCI   9
FARIBAULT      FAIR      25  14  63 S13G23    30.15F WCI  13
$$

...ELSEWHERE IN MINNESOTA...


CITY           SKY/WX    TMP DP  RH WIND       PRES   REMARKS
MINNEAPOLIS    FAIR      26  11  52 SW9       30.13F WCI  17
INTNL FALLS    FAIR      26  10  50 W9        29.81F WCI  17
DULUTH         FAIR      24   8  50 W15       29.88R WCI  11
RED WING       FAIR      25   7  46 W16G22    30.15F WCI  12
REDWOOD FALLS  SUNNY     30  15  53 W10       30.13S WCI  21
MANKATO        FAIR      28  15  58 S15       30.15F WCI  16
WORTHINGTON    SUNNY     27  17  66 SW21G26   30.15F WCI  13
FAIRMONT       SUNNY     28  16  60 SW25      30.15F WCI  13
$$

...SOUTHWEST WISCONSIN...


CITY           SKY/WX    TMP DP  RH WIND       PRES   REMARKS
LA CROSSE      FAIR      24   9  52 S17G28    30.22F WCI  11
PRAIRIE DU CHI FAIR      23   6  48 SW12G18   30.33F WCI  11
BOSCOBEL       FAIR      25   7  46 SW10      30.31F WCI  15
LONE ROCK      FAIR      23   8  52 SW15G23   30.29F WCI  10
PLATTEVILLE    FAIR      22  10  60 SW22      30.34F WCI   6
FORT MC COY    FAIR      27   7  43 SW8       30.22F WCI  18
MAUSTON-NEW LI FAIR      25   4  41 SW16G23   30.22F WCI  12
VIROQUA        FAIR      22   9  57 SW18G25   30.22F WCI   8
WIS DELLS      FAIR      22   6  49 SW14      30.24F WCI   9
$$

...ELSEWHERE IN WISCONSIN...


CITY           SKY/WX    TMP DP  RH WIND       PRES   REMARKS
MILWAUKEE      PTSUNNY   23   8  52 SW22G37   30.27F WCI   8
MADISON        PTSUNNY   20   8  60 SW14G24   30.28F WCI   7
GREEN BAY      FAIR      24   8  50 SW15G23   30.11F WCI  11
EAU CLAIRE     NOT AVBL
BLACK RVR FLS  FAIR      28   3  35 SW9G18    30.18F WCI  19
MEDFORD        FAIR      21   5  49 SW12G17   30.05F HAZE    WCI   9
WAUSAU         FAIR      21   4  47 W16G23    30.06F WCI   7
WIS RAPIDS     FAIR      23   6  48 SW15      30.15F WCI  10
MARSHFIELD     FAIR      23   6  48 SW17      30.08F WCI   9
RICE LAKE      FAIR      24   6  46 SW6       30.09F WCI  17
$$

...NORTHEAST IOWA...


CITY           SKY/WX    TMP DP  RH WIND       PRES   REMARKS
WATERLOO       FAIR      23  10  57 SW15G23   30.34F WCI  10
DUBUQUE        FAIR      20   9  62 SW14      30.33F WCI   7
DECORAH        FAIR      23   9  54 SW14G23   30.25F WCI  11
MASON CITY     SUNNY     24  12  60 SW21G26   30.25F WCI   9
CHARLES CITY   FAIR      23  10  58 SW16G23   30.28F WCI  10
OELWEIN        FAIR      21  12  68 SW18      30.33F WCI   6
$$

...ELSEWHERE IN IOWA...


CITY           SKY/WX    TMP DP  RH WIND       PRES   REMARKS
DES MOINES     MOSUNNY   25   9  50 SW15      30.39F WCI  13
IOWA CITY      FAIR      24  10  55 SW15      30.45F WCI  11
FORT DODGE     SUNNY     26  14  60 SW16G23   30.30F WCI  14
MARSHALLTOWN   SUNNY     24  10  55 SW18      30.35F WCI  10
CEDAR RAPIDS   FAIR      23  10  57 SW21      30.38F WCI   8
$$

...NORTHERN ILLINOIS...


CITY           SKY/WX    TMP DP  RH WIND       PRES   REMARKS
CHICAGO-OHARE  FAIR      19   9  65 SW17      30.39F WCI   4
CHICAGO-MIDWAY FAIR      20   9  62 W17       30.42F WCI   5
MOLINE         FAIR      22  11  62 SW13G21   30.44F WCI  10
ROCKFORD       FAIR      18   8  65 SW12      30.40F WCI   5
PEORIA         FAIR      21   9  59 SW12      30.51F WCI   9
$$

NOTE: "FAIR" INDICATES FEW OR NO CLOUDS BELOW 12,000 FEET WITH NO
SIGNIFICANT WEATHER AND/OR OBSTRUCTIONS TO VISIBILITY. WIND
SPEEDS ARE IN MILES-PER-HOUR.




USA.gov is the U.S. government's official web portal to all federal, state and local government web resources and services.